Weather Roundup
Issued by NWS Corpus Christi, TX

Home | Current Version | Previous Version | Text Only | Print | Product List | Glossary On
Versions: 1 2 3 4 5 6 7 8 9 10 11 12 13 14 15 16 17 18 19 20 21 22 23 24 25 26 27 28 29 30 31 32 33 34 35 36 37 38 39 40 41 42 43 44 45 46 47 48 49 50
000
ASUS44 KCRP 231710
HRRCRP

SOUTH TEXAS REGIONAL WEATHER ROUNDUP
NATIONAL WEATHER SERVICE CORPUS CHRISTI TX
1200 PM CDT SAT JUL 23 2016


TXZ229>244-231800-
...CORPUS CHRISTI AREA OBSERVATIONS...

CITY           SKY/WX    TMP DP  RH WIND       PRES   REMARKS
CORPUS CHRISTI MOSUNNY   92  74  55 VRB3      29.97F HX 101
NAS CORPUS CHR MOSUNNY   91  78  65 SE9       29.98S HX 106
ROCKPORT       SUNNY     91  75  59 SE9       29.98S HX 101
KINGSVILLE NAS MOSUNNY   94  77  57 E8        29.97F HX 108
ALICE          MOSUNNY   94  70  45 E8        29.97F HX 100
FALFURRIAS     MOSUNNY   93  71  47 S8        29.97F HX  99
$$

...VICTORIA AREA OBSERVATIONS...

CITY           SKY/WX    TMP DP  RH WIND       PRES   REMARKS
VICTORIA       MOSUNNY   92  72  51 S8        29.99F HX  99
BEEVILLE       FAIR      93  73  52 SE7       29.99F HX 102
PLEASANTON     SUNNY     92  67  42 CALM      30.01S HX  95
SAN ANTONIO    MOSUNNY   88  69  53 SW9       30.03S HX  92
$$

...LAREDO AREA OBSERVATIONS...

CITY           SKY/WX    TMP DP  RH WIND       PRES   REMARKS
LAREDO         SUNNY     95  68  41 SE8       29.98S HX  99
COTULLA        SUNNY     94  64  37 S7        29.98F HX  95
DEL RIO        SUNNY     93  69  45 SE13G21   29.97F HX  98
MCALLEN        MOSUNNY   92  74  55 VRB6      29.97F HX 101
HEBBRONVILLE   SUNNY     92  67  42 SE9       30.00F HX  96
$$

...OTHER TEXAS OBSERVATIONS...

CITY           SKY/WX    TMP DP  RH WIND       PRES   REMARKS
BROWNSVILLE    MOSUNNY   93  72  50 S7G16     29.97F HX 101
HOUSTON        MOSUNNY   92  73  53 VRB5      29.99F HX 100
COL. STATION   SUNNY     91  72  53 S8        30.00F HX  98
AUSTIN         MOSUNNY   91  71  51 SE9       30.00F HX  97
WACO           SUNNY     95  67  39 S10       30.00F HX  99
FORT WORTH     MOSUNNY   96  70  42 SW8       29.98F HX 102
WICHITA FALLS  SUNNY     96  67  38 SW8G17    29.97F HX 100
LUBBOCK        SUNNY     91  58  32 SW12      30.08F HX  90
EL PASO        MOSUNNY   92  49  22 S8        30.06F
$$

...MARINE OBSERVATIONS...

STATION/POSITION TIME  SKY/WX   TEMP    WIND        PRES    VSBY  WAVE   SWELL
                                AIR SEA DIR/SP/G                  HT/PER HT/PER
                 (UTC)          (F)     (DEG/KT/KT) (MB)    (MI)  (FT/S) (FT/S)
PORT ARANSAS     1700            85 89  120/  6/  7 1015.5F
BUOY 90 E PORT A 1650            85 87  160/  6/  6 1015.8R         2/ 5   2/ 5
BUOY 45 SE BAFFI 1650            84 87  210/  2/  4 1015.1F         2/ 5   2/ 5
BUOY 200 E PT IS 1650            85 86   80/  2/  4 1016.4S         2/ 4   2/ 4
BUOY 15 E GALVES 1650            86 89  210/  4/  6 1016.1F         2/ 6   2/ 6
$$



USA.gov is the U.S. government's official web portal to all federal, state and local government web resources and services.